| time (UTC) | temp F | wind direction | speed knots | gust knots | rain 1hr in | rain 24hr in | rain mn in | humidity % | barometer mb |
| 20260504044522 | 52 | 287 | 0.0 | 0.0 | 0.00 | 0.00 | 0.00 | 57 | 1015.8 |
| 20260504043019 | 52 | 287 | 0.0 | 0.0 | 0.00 | 0.00 | 0.00 | 48 | 1015.6 |
| 20260504041518 | 51 | 287 | 0.0 | 0.0 | 0.00 | 0.00 | 0.00 | 49 | 1015.5 |
| 20260504040034 | 51 | 287 | 0.0 | 0.0 | 0.00 | 0.00 | 0.00 | 50 | 1015.8 |
| 20260504034514 | 51 | 287 | 0.0 | 0.0 | 0.00 | 0.00 | 0.00 | 48 | 1015.7 |
| 20260504033014 | 51 | 285 | 0.0 | 0.0 | 0.00 | 0.00 | 0.00 | 49 | 1015.7 |
| 20260504031514 | 51 | 285 | 0.0 | 0.0 | 0.00 | 0.00 | 0.00 | 47 | 1015.7 |
| 20260504030013 | 51 | 285 | 0.0 | 0.0 | 0.00 | 0.00 | 0.00 | 47 | 1015.8 |
| 20260504024512 | 51 | 285 | 0.0 | 0.0 | 0.00 | 0.00 | 0.00 | 49 | 1015.8 |
| 20260504023011 | 52 | 285 | 0.0 | 0.0 | 0.00 | 0.00 | 0.00 | 46 | 1015.9 |
| 20260504021510 | 53 | 285 | 0.0 | 0.0 | 0.00 | 0.00 | 0.00 | 44 | 1015.7 |
| 20260504020011 | 53 | 285 | 0.0 | 0.0 | 0.00 | 0.00 | 0.00 | 41 | 1015.5 |
| 20260504014521 | 53 | 285 | 0.0 | 0.0 | 0.00 | 0.00 | 0.00 | 41 | 1015.5 |
| 20260504013009 | 53 | 285 | 0.0 | 0.0 | 0.00 | 0.00 | 0.00 | 41 | 1015.2 |
| 20260504011509 | 53 | 285 | 0.0 | 0.0 | 0.00 | 0.00 | 0.00 | 42 | 1015.0 |
| 20260504010009 | 54 | 285 | 0.0 | 0.0 | 0.00 | 0.00 | 0.00 | 41 | 1015.0 |
| 20260504004508 | 54 | 285 | 0.0 | 0.0 | 0.00 | 0.00 | 0.00 | 42 | 1014.9 |
| 20260504003010 | 54 | 285 | 0.0 | 0.0 | 0.00 | 0.00 | 0.00 | 42 | 1014.8 |
| 20260504001507 | 55 | 289 | 0.0 | 0.0 | 0.00 | 0.00 | 0.00 | 42 | 1014.8 |
| 20260504000006 | 57 | 292 | 0.0 | 0.0 | 0.00 | 0.00 | 0.00 | 40 | 1014.8 |
| 20260503234507 | 60 | 212 | 0.0 | 0.0 | 0.00 | 0.00 | 0.00 | 36 | 1014.8 |
| 20260503233005 | 61 | 51 | 0.0 | 0.0 | 0.00 | 0.00 | 0.00 | 35 | 1014.9 |
| 20260503231505 | 63 | 229 | 0.0 | 0.0 | 0.00 | 0.00 | 0.00 | 33 | 1014.8 |
| 20260503230005 | 63 | 22 | 0.0 | 0.0 | 0.00 | 0.00 | 0.00 | 31 | 1014.7 |
| 20260503224507 | 62 | 228 | 0.0 | 0.0 | 0.00 | 0.00 | 0.00 | 29 | 1014.7 |
| 20260503223003 | 63 | 348 | 0.0 | 0.0 | 0.00 | 0.00 | 0.00 | 28 | 1014.8 |
| 20260503221503 | 63 | 205 | 0.0 | 0.0 | 0.00 | 0.00 | 0.00 | 31 | 1014.9 |
| 20260503220003 | 63 | 263 | 0.0 | 0.0 | 0.00 | 0.00 | 0.00 | 29 | 1015.0 |
| 20260503214503 | 64 | 265 | 0.0 | 0.9 | 0.00 | 0.00 | 0.00 | 28 | 1015.1 |
| 20260503213002 | 64 | 163 | 0.0 | 5.2 | 0.00 | 0.00 | 0.00 | 29 | 1015.1 |
| 20260503211501 | 65 | 267 | 0.0 | 0.9 | 0.00 | 0.00 | 0.00 | 29 | 1015.2 |
| 20260503210001 | 65 | 251 | 0.0 | 0.9 | 0.00 | 0.00 | 0.00 | 30 | 1015.2 |
| 20260503204601 | 64 | 221 | 0.0 | 4.3 | 0.00 | 0.00 | 0.00 | 29 | 1015.2 |
| 20260503203100 | 64 | 209 | 0.0 | 2.6 | 0.00 | 0.00 | 0.00 | 30 | 1015.5 |
| 20260503201559 | 66 | 237 | 0.0 | 0.9 | 0.00 | 0.00 | 0.00 | 27 | 1015.6 |
| 20260503200101 | 66 | 316 | 0.0 | 0.0 | 0.00 | 0.00 | 0.00 | 30 | 1016.0 |
| 20260503194556 | 64 | 215 | 0.0 | 0.0 | 0.00 | 0.00 | 0.00 | 30 | 1016.2 |
| 20260503193102 | 64 | 271 | 0.0 | 0.0 | 0.00 | 0.00 | 0.00 | 29 | 1016.4 |
| 20260503191558 | 63 | 240 | 0.0 | 7.0 | 0.00 | 0.00 | 0.00 | 32 | 1016.5 |
| 20260503190053 | 62 | 255 | 0.0 | 0.0 | 0.00 | 0.00 | 0.00 | 31 | 1016.8 |
| 20260503184546 | 62 | 333 | 0.0 | 3.5 | 0.00 | 0.00 | 0.00 | 32 | 1017.2 |
| 20260503183105 | 61 | 259 | 0.0 | 1.7 | 0.00 | 0.00 | 0.00 | 34 | 1017.2 |
| 20260503181603 | 61 | 334 | 0.0 | 7.8 | 0.00 | 0.00 | 0.00 | 36 | 1017.5 |
| 20260503180042 | 60 | 265 | 0.0 | 4.3 | 0.00 | 0.00 | 0.00 | 35 | 1017.5 |
| 20260503174538 | 58 | 226 | 0.0 | 0.9 | 0.00 | 0.00 | 0.00 | 37 | 1017.7 |
| 20260503173036 | 59 | 236 | 0.0 | 3.5 | 0.00 | 0.00 | 0.00 | 38 | 1017.9 |
| 20260503171536 | 58 | 230 | 0.0 | 0.9 | 0.00 | 0.00 | 0.00 | 39 | 1018.1 |
| 20260503090105 | 40 | 41 | 0.0 | 0.0 | 0.00 | 0.00 | 0.00 | 70 | 1016.0 |
| 20260503081555 | 40 | 5 | 0.0 | 0.0 | 0.00 | 0.00 | 0.00 | 72 | 1015.6 |
| 20260503071556 | 41 | 5 | 0.0 | 0.0 | 0.00 | 0.00 | 0.00 | 73 | 1015.1 |
| 20260503070108 | 40 | 5 | 0.0 | 0.0 | 0.00 | 0.00 | 0.00 | 76 | 1015.1 |